Flag for U.S.A. Weather past 2 weeks in Youngstown, Ohio, U.S.A.

Now
16 °F

Clear.


Feels Like: 9 °F
Forecast: 14 / 45 °F
Wind: 5 mph from South

Location: Youngstown-Warren Regional Airport

Current Time: Mar 29, 2015 at 5:29:36 AM

Latest Report: Mar 29, 2015 at 4:51 AM


Visibility: 10 mi

Pressure: 30.34 "Hg

Humidity: 77%

Dew point: 10 °F

Location of YoungstownLocation

Historic Weather in Youngstown — Graph

°F

Youngstown temperature yesterday

Maximum temperature yesterday: 26 °F (at 2:51 PM)
Minimum temperature yesterday: 12 °F (at 6:51 AM)
Average temperature yesterday: 19 °F

Past Weeks' High & Low Weather Summary

 TemperatureHumidityPressure
High61 °F (Mar 16, 1:51 PM)100% (Mar 14, 5:51 AM)30.36 "Hg (Mar 14, 5:51 AM)
Low12 °F (Mar 28, 6:51 AM)26% (Mar 19, 4:51 PM)29.67 "Hg (Mar 17, 3:51 AM)
Average35 °F68%30.10 "Hg
* Reported Mar 14 3:51 AM — Mar 29 3:51 AM, Youngstown, Weather by CustomWeather, © 2015

Note: Actual official high and low records may vary slightly from our data, if they occured in-between our weather recording intervals... More about our weather records

Advertising

Youngstown weather history for previous 24 hours

 ConditionsComfort  
Time TempWeatherWind HumidityBarometerVisibility
3:51 AM
Sun, Mar 29
17 °FClear.5 mph74%30.34 "Hg10 mi
2:51 AM17 °FClear.6 mph74%30.34 "Hg10 mi
1:51 AM18 °FClear.3 mph71%30.35 "Hg10 mi
12:51 AM18 °FClear.3 mph71%30.34 "Hg10 mi
11:51 PM
Sat, Mar 28
19 °FClear.5 mph68%30.33 "Hg10 mi
10:51 PM20 °FClear.5 mph62%30.33 "Hg10 mi
9:51 PM20 °FClear.5 mph62%30.32 "Hg10 mi
8:51 PM21 °FClear.7 mph55%30.31 "Hg10 mi
7:51 PM22 °FPassing clouds.12 mph52%30.29 "Hg10 mi
6:51 PM25 °FSunny.14 mph46%30.28 "Hg10 mi
5:51 PM26 °FPassing clouds.17 mph42%30.25 "Hg10 mi
4:51 PM26 °FPassing clouds.12 mph46%30.24 "Hg10 mi
3:51 PM26 °FPassing clouds.16 mph44%30.23 "Hg10 mi
2:51 PM26 °FScattered clouds.15 mph48%30.23 "Hg10 mi
1:51 PM24 °FBroken clouds.18 mph57%30.23 "Hg10 mi
12:51 PM21 °FMostly cloudy.16 mph60%30.23 "Hg10 mi
11:51 AM20 °FOvercast.10 mph60%30.23 "Hg10 mi
10:51 AM18 °FOvercast.14 mph62%30.22 "Hg10 mi
9:51 AM17 °FBroken clouds.10 mph64%30.19 "Hg10 mi
8:51 AM16 °FBroken clouds.14 mph67%30.17 "Hg10 mi
7:51 AM12 °FPassing clouds.5 mph80%30.15 "Hg10 mi
6:51 AM12 °FPassing clouds.6 mph77%30.11 "Hg10 mi
5:51 AM15 °FLight snow. Partly cloudy.10 mph77%30.09 "Hg5 mi
Weather by CustomWeather, © 2015

See weather overviewHow to use our weather pages